Location: Hackbridge
(51.3833°N, 0.1500°W)
Time: 11:59:30
(UTC+00:00)

STARLINK-71 - Pass Details

Date: 13 October 2019
Orbit: 548 x 551 km, 53.0° (Epoch: 11 November)

Event Time Altitude Azimuth Distance (km) Brightness Sun altitude
Rises 18:30:01 0° 225° (SW) 2,707 7.8 -12.9°
Reaches altitude 10° 18:32:18 10° 218° (SW) 1,817 6.7 -13.2°
Maximum altitude 18:36:12 42° 148° (SSE) 795 4.1 -13.8°
Enters shadow 18:38:10 24° 92° (E) 1,148 4.6 -14.1°
